GFSFLT2_850_temp_000.txt.gz
Temp
17 17 16 16 16 16 15 15 15 15 14 14 14 14 14 14 14 14 14 14 13 13 13 13 13 13 13 12 12 12 12 12
16 16 17 17 16 16 15 14 14 14 14 14 14 14 14 14 14 15 15 14 14 13 13 13 13 13 12 12 11 11 11 11
16 16 16 17 17 16 15 14 14 13 14 14 14 14 14 14 14 14 14 14 14 14 14 13 13 12 12 11 11 11 11 11
16 16 16 16 16 16 15 15 14 14 14 13 14 14 14 14 14 14 14 14 13 13 13 13 13 12 12 11 11 11 11 11
16 16 16 16 15 15 15 14 14 14 13 13 13 14 14 14 14 14 13 13 13 13 13 13 12 12 11 11 11 11 11 11
16 16 16 16 15 15 15 14 13 13 12 13 13 13 13 13 13 13 13 13 13 13 12 12 12 12 12 11 11 11 12 11
16 17 16 16 15 15 14 14 13 13 12 12 12 12 12 12 12 12 12 12 12 12 11 11 11 11 11 11 11 11 11 11
16 16 16 15 15 14 14 14 13 13 12 12 11 11 11 11 11 11 11 11 11 11 10 10 11 11 11 11 11 11 11 11
16 16 16 15 15 14 14 14 13 12 12 12 11 11 11 11 11 11 11 10 10 10 10 10 10 10 10 10 10 10 10 10
16 16 15 15 15 14 14 14 13 13 12 12 11 11 11 11 11 10 10 10 10 10 10 9 10 9 10 10 10 9 9 9
16 16 15 15 15 14 14 14 13 13 13 12 12 11 11 11 11 10 10 10 10 10 10 9 9 9 9 9 9 9 9 9
16 15 15 15 14 14 14 13 13 13 12 12 12 12 11 11 11 11 10 10 10 10 9 9 9 9 9 9 9 8 8 8
16 15 15 14 14 14 13 13 13 13 12 12 12 12 11 11 11 11 10 10 10 10 9 9 9 8 8 9 8 8 7 8
16 15 15 14 14 13 13 13 12 12 12 12 12 11 11 11 11 11 11 10 10 10 9 9 9 8 7 7 7 7 8 8
15 15 15 14 14 13 13 12 12 12 11 11 11 11 11 10 10 10 10 10 10 10 9 9 9 8 7 6 6 6 7 6
15 14 14 13 13 12 12 12 11 11 10 11 11 10 10 10 10 10 9 9 9 9 9 9 8 7 7 6 5 5 5 5
14 13 13 13 12 12 11 10 10 10 10 10 9 9 9 9 9 9 9 9 8 8 8 7 7 6 5 5 4 4 3 2
13 12 12 11 11 11 10 9 10 10 9 9 9 9 8 8 8 8 8 8 6 5 6 5 4 4 3 2 2 1 1 -0
11 11 10 10 10 10 10 10 9 8 8 8 8 7 6 6 6 6 6 4 3 4 3 3 2 1 -0 -1 -1 -1 -1 -1
10 9 9 9 9 9 8 7 7 6 7 7 6 5 5 5 5 4 4 3 2 1 0 -0 -1 -1 -0 -1 -1 -1 -2 -4

GFSFLT2_850_temp_003.txt.gz
Temp
17 17 17 17 16 16 15 15 15 15 15 15 15 14 14 14 14 14 14 14 14 14 14 13 13 13 13 12 12 12 12 13
17 17 16 16 16 15 15 15 14 14 14 14 15 15 14 14 14 14 14 14 14 14 14 14 13 13 12 12 11 11 11 12
16 16 16 16 16 15 15 15 15 14 14 14 14 14 14 14 15 14 14 14 14 14 14 14 13 13 13 12 11 11 11 11
17 16 16 16 16 16 15 15 15 14 14 14 13 14 14 14 14 14 14 13 13 13 13 13 13 13 12 12 11 11 11 11
16 16 16 16 15 15 15 15 15 14 14 13 13 14 14 14 14 13 13 13 12 12 12 12 12 12 11 11 12 12 12 12
16 16 16 16 15 15 14 14 14 13 13 13 13 12 13 13 13 12 13 12 12 12 12 11 11 11 11 11 11 11 11 11
16 16 16 15 15 14 14 14 13 13 13 12 12 12 12 12 12 12 12 12 11 11 11 11 11 11 11 11 11 11 11 11
15 16 16 15 15 15 14 14 13 13 12 12 12 12 11 11 11 11 11 11 11 11 10 10 10 10 11 11 10 10 10 10
16 16 15 15 15 14 14 14 13 13 12 12 12 12 11 11 11 11 11 11 11 10 10 10 10 10 10 10 10 10 10 10
16 16 15 15 15 15 14 14 14 13 13 13 12 12 12 11 11 11 11 11 10 11 10 10 10 10 9 9 9 9 10 9
16 16 15 15 15 14 14 14 13 13 12 12 12 12 12 12 11 11 11 11 11 10 10 10 10 10 10 9 9 9 9 9
16 15 15 15 14 14 13 13 13 13 12 12 12 12 11 11 11 11 11 11 11 11 11 10 10 10 10 9 9 9 9 8
16 15 15 14 14 13 13 13 13 13 12 12 12 11 11 11 11 11 10 10 10 10 10 10 10 10 9 9 9 9 9 8
15 15 14 14 13 13 13 13 13 12 12 12 11 11 11 11 11 11 10 10 10 10 9 9 9 9 9 7 7 8 8 8
15 14 14 13 13 12 12 12 12 12 12 11 11 11 11 10 10 9 9 9 9 10 9 9 9 8 9 8 8 8 8 7
14 13 13 12 11 11 11 11 10 10 10 9 10 10 10 10 10 9 8 8 8 8 9 8 7 7 7 8 7 7 7 7
12 12 11 11 11 11 11 10 9 9 9 10 10 10 10 9 9 8 7 7 7 7 8 7 6 5 5 5 6 5 4 4
11 11 11 11 11 10 9 9 9 9 9 9 9 8 8 8 7 6 5 5 6 5 5 4 2 2 2 3 3 3 3 1
11 11 11 10 10 9 8 8 7 7 7 7 7 7 7 5 5 4 4 4 3 2 2 1 0 -1 -1 -0 -1 -1 -0 -1
10 10 10 10 9 9 8 7 6 6 5 6 6 6 5 4 3 2 2 2 1 1 1 0 -0 -1 -1 -1 -1 -2 -1 -1

GFSFLT2_850_temp_006.txt.gz
Temp
16 16 17 16 16 16 15 15 15 15 15 15 15 14 14 14 14 14 14 14 13 13 13 13 13 13 13 13 13 13 12 12
16 17 17 16 16 15 15 15 14 14 14 14 14 14 14 14 14 14 14 14 14 13 13 13 13 13 13 12 12 12 11 11
17 16 16 16 16 15 15 15 15 14 14 14 14 13 14 14 14 14 14 14 13 13 13 13 13 13 13 12 12 11 11 11
17 16 16 16 16 15 15 15 13 13 13 14 13 14 13 13 13 13 13 13 13 13 13 13 12 10 10 12 11 11 11 11
16 16 16 16 15 14 13 13 13 12 14 13 12 13 11 11 10 10 10 11 10 10 11 10 11 11 10 11 11 11 11 11
15 16 16 15 14 13 13 13 13 12 12 13 11 11 11 11 11 10 10 10 10 10 10 11 11 11 11 11 11 11 10 10
15 15 16 15 15 13 13 13 12 12 12 11 11 11 11 11 11 10 10 10 10 9 9 9 10 10 10 10 10 10 10 10
15 15 16 15 14 14 14 14 13 12 12 12 12 12 11 11 11 11 11 10 10 9 9 10 9 10 9 9 9 9 9 9
15 16 16 15 15 15 14 13 14 12 12 13 12 12 11 11 11 11 11 10 10 9 9 9 10 9 10 9 10 9 8 9
15 16 16 15 15 14 13 13 13 12 12 13 12 12 12 12 10 10 10 10 10 10 9 9 9 9 9 9 9 9 8 8
15 16 15 14 14 14 14 13 13 12 12 12 12 12 12 12 12 11 11 10 10 10 9 9 9 9 9 9 9 9 9 8
15 15 14 15 14 14 13 13 13 13 13 12 12 12 11 11 11 11 10 9 9 9 9 9 9 9 10 10 9 9 9 8
15 14 15 14 13 13 13 12 12 11 11 12 12 11 11 11 11 10 10 9 9 10 8 9 8 9 8 9 9 9 8 8
14 14 14 14 13 13 12 12 11 12 11 12 11 11 11 10 9 9 8 8 8 8 8 8 8 8 8 9 10 10 10 8
14 14 13 13 12 10 10 10 10 10 10 10 11 10 10 10 9 9 9 8 7 7 7 7 8 8 8 8 9 10 10 10
13 12 11 11 11 10 10 9 9 9 8 8 9 9 9 10 9 9 9 8 6 6 6 6 6 7 8 8 7 7 8 9
10 10 10 11 10 10 9 8 7 7 7 6 7 7 7 8 8 8 7 6 5 5 5 4 4 5 6 6 6 6 6 6
11 10 9 10 9 9 9 7 6 6 6 6 6 6 5 5 5 6 5 4 3 3 2 2 2 2 2 2 2 2 3 4
11 11 9 8 9 9 8 8 6 6 5 5 4 4 4 4 4 2 2 2 1 1 1 0 -0 -1 -0 -0 -0 -0 -0 -0
11 10 8 8 8 7 7 6 5 4 4 3 3 3 3 3 1 1 1 1 1 1 0 -1 -1 -1 -1 -1 -1 -1 -2 -2

GFSFLT2_850_temp_009.txt.gz
Temp
16 16 17 16 16 16 15 15 15 14 14 14 14 14 14 14 14 14 14 14 14 14 13 13 13 13 14 14 13 13 14 13
16 16 16 15 15 16 15 15 15 14 14 14 14 14 13 14 13 14 14 14 13 13 13 13 13 13 13 13 13 13 13 14
16 16 15 15 15 15 15 14 14 14 14 13 13 13 12 12 12 13 13 13 13 13 13 13 12 12 12 12 13 13 12 13
16 16 15 15 15 14 14 14 14 13 13 13 14 12 12 12 12 12 12 12 12 11 11 12 11 12 12 12 12 12 12 13
17 15 15 15 15 15 16 15 14 14 13 13 13 12 13 12 12 12 12 12 12 11 11 11 10 10 10 11 11 11 12 13
17 15 15 15 15 16 15 15 14 14 13 13 12 13 12 12 12 12 12 12 11 11 11 11 10 10 10 10 10 11 12 12
18 16 15 15 14 15 14 14 14 14 13 13 12 12 12 12 12 12 12 12 12 11 11 11 11 10 10 10 10 10 10 10
18 17 15 15 15 14 14 14 14 14 13 13 13 12 11 11 12 12 12 12 12 11 11 10 10 10 10 10 9 10 10 10
18 17 16 15 14 14 14 14 14 14 13 12 12 12 12 11 11 11 12 11 11 11 11 11 11 10 11 10 10 9 9 9
18 17 16 15 15 14 14 14 14 14 14 13 12 11 11 11 11 11 11 11 11 11 11 11 11 11 11 11 11 11 10 9
18 16 16 15 14 15 14 13 13 14 13 13 12 12 11 12 12 11 11 10 10 10 11 11 11 11 11 11 11 11 10 10
18 16 16 15 15 14 14 14 13 13 13 12 11 11 11 11 10 10 10 10 10 10 10 10 10 10 10 11 11 11 11 10
17 16 15 14 14 14 14 14 13 13 12 11 10 10 11 11 9 9 9 9 9 10 9 9 9 9 9 10 10 10 10 10
14 14 13 13 13 12 12 12 12 11 12 10 10 9 9 9 9 8 8 8 8 8 8 8 8 8 9 9 9 10 10 11
13 12 11 11 12 12 11 12 12 12 11 10 9 8 8 8 8 7 7 7 7 7 7 7 7 7 8 8 8 9 10 10
12 11 11 10 11 10 10 10 10 9 9 9 8 8 8 7 7 6 5 5 6 6 6 6 5 6 6 7 8 8 8 8
11 11 10 10 10 9 9 9 9 9 8 8 7 7 6 6 6 6 5 5 5 4 4 4 4 4 5 5 5 5 6 5
11 11 11 10 9 9 8 9 9 7 7 7 7 6 5 5 5 4 4 4 3 3 3 3 2 1 1 1 0 1 1 0
11 11 11 10 9 8 8 8 7 7 6 6 5 4 4 4 3 3 3 3 3 2 2 2 1 1 0 -0 -1 -0 -0 -0
10 10 10 10 9 8 8 7 6 5 4 3 3 3 3 3 2 2 2 2 1 1 -0 -0 -1 -1 -1 -1 -2 -2 -2 -2